User: anonymous
Location: Ottawa
(45.4170°N, 75.7000°W)
Time: 12:08:03
(UTC-04:00)
Language:

Aureole 3 Rocket - Orbit

View from above orbital plane
View from above orbital plane
View from above satellite
View from above satellite

Ground track
Ground track

The orbit data is extracted from the following two-line orbital elements,

1 12849U 81094B   14263.71501257  .00000766  00000-0  71382-4 0  9950
2 12849 082.4954 213.6640 0910530 222.2824 130.4580 13.48277462606984
Epoch (UTC): 20 September 2014 17:09:37
Eccentricity: 0.0910530
inclination: 82.4954°
perigee height: 399 km
apogee height: 1757 km
right ascension of ascending node: 213.6640°
argument of perigee: 222.2824°
revolutions per day: 13.48277462
mean anomaly at epoch: 130.4580°
orbit number at epoch: 60698

The dashed part of the orbit path shows where the satellite is in the earth's shadow,  

DLR